[[{"header":{"parameterUnit":"m.s-1","parameterCategory":1,"la1":30.2991,"la2":30.254,"lo1":-89.0895,"lo2":-89.0444,"dy":0.0017,"dx":0.0017,"nx":28,"ny":28,"refTime":"2025-03-27T03:00:00:Z","depth":0,"parameterNumber":2,"parameterNumberName":"U-component_of_WINDS"},"data":[0,0,0,0,0,0,0,0,0,0,0,0,0,0,0,0,0,0,0,0,0,0,0,0,0,0,0,0,0,0,0,0,0,0,0,0,0,0,0,0,0,0,0,0,0,0,0,0,0,0,0,0,0,0,0,0,0,0,-3.6857,-3.6857,0,-3.6859,-3.6859,-3.6859,-3.6817,-3.6816,-3.6814,-3.6813,-3.6815,-3.6816,-3.6817,0,0,0,0,0,0,0,0,0,0,0,0,0,-3.6819,-3.682,-3.6857,-3.6857,-3.6857,-3.6859,-3.6859,-3.6859,-3.6817,-3.6816,-3.6814,-3.6813,-3.6815,-3.6816,-3.6817,0,0,0,0,0,0,0,0,0,0,0,0,0,-3.683,-3.682,-3.6857,-3.6836,-3.6835,-3.6859,-3.6859,-3.6859,-3.6817,-3.6816,-3.6814,-3.6812,-3.6814,-3.6816,-3.6817,-3.6862,0,0,-3.6822,-3.6823,0,0,0,0,0,0,0,0,-3.6829,-3.6831,-3.684,-3.6838,-3.6836,-3.6836,-3.6846,-3.686,-3.6818,-3.6824,-3.6813,-3.6811,-3.6823,-3.6824,-3.6828,-3.6862,-3.6862,-3.6823,-3.6824,-3.6824,-3.6825,0,0,0,0,0,0,0,-3.6829,-3.6831,-3.6858,-3.684,-3.6838,-3.6828,-3.6827,-3.6849,-3.6833,-3.6823,-3.682,-3.6821,-3.6822,-3.6827,-3.6828,-3.6862,-3.6823,-3.6824,-3.6825,-3.6826,-3.6934,-3.6935,0,0,0,0,0,0,-3.683,-3.6831,-3.6858,-3.6858,-3.6828,-3.683,-3.6829,-3.6838,-3.6833,-3.683,-3.6822,-3.6819,-3.6825,-3.6826,-3.6828,-3.688,-3.6824,-3.6826,-3.6827,-3.6932,-3.6934,-3.6936,0,0,0,0,0,0,-3.683,-3.6833,-3.6858,-3.6843,-3.6846,-3.6832,-3.6842,-3.6839,-3.6843,-3.6832,-3.6829,-3.683,-3.6823,-3.6825,-3.6854,-3.6879,-3.6827,-3.6828,-3.693,-3.6932,-3.6935,-3.6983,0,0,0,0,0,0,-3.6829,-3.6833,-3.6849,-3.6844,-3.6847,-3.6883,-3.6843,-3.684,-3.6846,-3.6842,-3.6838,-3.6836,-3.6822,-3.6852,-3.6856,-3.688,-3.6829,-3.6927,-3.6931,-3.6934,-3.6979,-3.6987,-3.6994,0,0,0,0,0,-3.6828,-3.6862,-3.685,-3.6854,-3.6866,-3.6885,-3.6886,-3.687,-3.6848,-3.6865,-3.6858,-3.6836,-3.6876,-3.6855,-3.6859,-3.6885,-3.6925,-3.693,-3.6934,-3.6976,-3.6986,-3.6994,0,0,0,0,0,0,-3.687,-3.6861,-3.6848,-3.6882,-3.6884,-3.6878,-3.6897,-3.688,-3.6889,-3.6884,-3.6864,-3.6863,-3.6895,-3.6893,-3.687,-3.6928,-3.6897,-3.6902,-3.6928,-3.6937,-3.6944,-3.6943,-3.6831,0,0,0,0,0,-3.6883,-3.6899,-3.6891,-3.6921,-3.6924,-3.6911,-3.6918,-3.6905,-3.6907,-3.6908,-3.6903,-3.6906,-3.692,-3.6929,-3.694,-3.698,-3.6979,-3.7,-3.7007,-3.7014,-3.7018,-3.704,-3.7049,-3.695,-3.695,-3.695,0,0,-3.691,-3.6908,-3.6919,-3.693,-3.693,-3.6947,-3.6912,-3.6931,-3.6943,-3.6911,-3.6937,-3.6935,-3.6937,-3.6971,-3.6986,-3.697,-3.7045,-3.7019,-3.7024,-3.7025,-3.7045,-3.7054,-3.7063,-3.6953,-3.6952,-3.6952,0,0,-3.6969,-3.6968,-3.6994,-3.6997,-3.6998,-3.699,-3.6997,-3.6993,-3.699,-3.7017,-3.6994,-3.7009,-3.7032,-3.7035,-3.7039,-3.7103,-3.7083,-3.7107,-3.7145,-3.7167,-3.7175,-3.7182,-3.7204,-3.7212,-3.7112,-3.7112,-3.7112,0,-3.7002,-3.7026,-3.701,-3.7031,-3.7037,-3.701,-3.7037,-3.704,-3.7046,-3.7051,-3.7033,-3.7063,-3.7063,-3.7098,-3.7114,-3.7118,-3.7125,-3.7106,-3.7175,-3.7182,-3.7188,-3.7209,-3.7217,-3.7115,-3.7115,-3.7114,-3.7114,0,-3.7068,-3.7085,-3.7106,-3.7113,-3.7122,-3.7146,-3.7134,-3.7145,-3.7133,-3.7127,-3.7155,-3.7154,-3.7166,-3.7174,-3.7161,-3.7208,-3.7198,-3.7179,-3.7147,-3.72,-3.722,-3.7228,-3.7119,-3.7118,-3.7117,-3.7116,0,0,-3.7149,-3.7149,-3.7157,-3.716,-3.7162,-3.7176,-3.72,-3.7211,-3.7221,-3.7228,-3.7247,-3.7269,-3.7251,-3.7257,-3.7245,-3.7264,-3.7315,-3.7242,-3.7242,-3.7255,-3.7367,-3.738,-3.739,-3.7303,-3.7305,-3.7306,-3.7366,0,-3.7205,-3.7245,-3.7232,-3.7272,-3.7289,-3.7266,-3.7287,-3.7291,-3.7287,-3.7301,-3.7297,-3.7312,-3.7288,-3.7291,-3.7309,-3.7305,-3.7337,-3.7301,-3.7321,-3.7322,-3.7319,-3.74,-3.7414,-3.7471,-3.7374,-3.7375,-3.7376,0,-3.7274,-3.7284,-3.7327,-3.7328,-3.7334,-3.7353,-3.7364,-3.7378,-3.7383,-3.7379,-3.7386,-3.7372,-3.7396,-3.7366,-3.74,-3.7375,-3.7384,-3.7383,-3.7385,-3.7384,-3.7351,-3.7401,-3.7488,-3.7497,-3.7388,-3.7387,-3.7386,0,-3.7329,-3.7353,-3.7381,-3.7385,-3.7387,-3.7402,-3.7403,-3.7406,-3.7415,-3.7425,-3.7431,-3.7444,-3.7451,-3.7462,-3.7451,-3.743,-3.7487,-3.7455,-3.7484,-3.7484,-3.7494,-3.7493,-3.7583,-3.7502,-3.7502,-3.7502,-3.7502,0,-3.7391,-3.7418,-3.7406,-3.7423,-3.7453,-3.744,-3.747,-3.7469,-3.7473,-3.749,-3.7472,-3.7489,-3.7475,-3.7491,-3.7483,-3.7512,-3.7516,-3.7513,-3.751,-3.7514,-3.7514,-3.7517,-3.7512,-3.7504,-3.7504,-3.7503,-3.7503,0,-3.7456,-3.7449,-3.7478,-3.7479,-3.748,-3.7502,-3.7503,-3.7519,-3.7516,-3.7538,-3.7543,-3.7536,-3.7555,-3.7546,-3.7565,-3.756,-3.7597,-3.759,-3.7595,-3.7593,-3.7621,-3.7618,-3.7715,-3.7727,-3.764,-3.764,-3.7641,0,-3.7495,-3.7515,-3.7519,-3.753,-3.7533,-3.755,-3.756,-3.7548,-3.7559,-3.7568,-3.7584,-3.7601,-3.7613,-3.7643,-3.7641,-3.7655,-3.7648,-3.7681,-3.7649,-3.7653,-3.7647,-3.7645,-3.7647,-3.7686,-3.7687,-3.7688,-3.7689,0,-3.7566,-3.7563,-3.7577,-3.7591,-3.7603,-3.7613,-3.7621,-3.7632,-3.7621,-3.7634,-3.7653,-3.7663,-3.7683,-3.77,-3.7714,-3.7716,-3.7701,-3.7699,-3.7706,-3.7709,-3.7711,-3.7709,-3.7611,-3.7696,-3.7695,-3.7695,-3.7694,-3.7694,-3.7619,-3.7636,-3.7642,-3.7659,-3.7665,-3.7674,-3.769,-3.7689,-3.7705,-3.772,-3.7713,-3.7735,-3.7742,-3.7759,-3.7764,-3.7781,-3.7768,-3.7778,-3.7781,-3.7783,-3.7786,-3.771,-3.7784,-3.7783,-3.7783,-3.7783,-3.7783,0,-3.7688,-3.7691,-3.7707,-3.7721,-3.7735,-3.7721,-3.7731,-3.7743,-3.7763,-3.7771,-3.7784,-3.7807,-3.7824,-3.7824,-3.784,-3.7854,-3.7848,-3.7859,-3.7857,-3.7857,-3.7797,-3.7789,-3.7864,-3.7864,-3.7864,-3.7864,-3.7864,-3.7864,-3.7725,-3.7754,-3.7752,-3.7784,-3.7788,-3.7809,-3.7816,-3.7825,-3.7831,-3.7857,-3.7872,-3.7872,-3.7877,-3.7894,-3.791,-3.7909,-3.7916,-3.7929,-3.7926,-3.787,-3.7861,-3.7854,-3.7846,-3.7931,-3.7931,-3.7984,-3.7985,-3.7985]},{"header":{"parameterUnit":"m.s-1","parameterCategory":1,"la1":30.2991,"la2":30.254,"lo1":-89.0895,"lo2":-89.0444,"dy":0.0017,"dx":0.0017,"nx":28,"ny":28,"refTime":"2025-03-27T03:00:00:Z","depth":0,"parameterNumber":3,"parameterNumberName":"V-component_of_WINDS"},"data":[0,0,0,0,0,0,0,0,0,0,0,0,0,0,0,0,0,0,0,0,0,0,0,0,0,0,0,0,0,0,0,0,0,0,0,0,0,0,0,0,0,0,0,0,0,0,0,0,0,0,0,0,0,0,0,0,0,0,2.1643,2.1644,0,2.1711,2.1711,2.1712,2.1806,2.1808,2.181,2.1811,2.1877,2.1877,2.1877,0,0,0,0,0,0,0,0,0,0,0,0,0,2.1594,2.1594,2.1643,2.1644,2.1645,2.171,2.1711,2.1712,2.1806,2.1808,2.181,2.1812,2.1876,2.1877,2.1877,0,0,0,0,0,0,0,0,0,0,0,0,0,2.1633,2.1594,2.1643,2.1699,2.1705,2.171,2.1711,2.1713,2.1806,2.1808,2.181,2.1813,2.1876,2.1877,2.1877,2.1831,0,0,2.1878,2.1878,0,0,0,0,0,0,0,0,2.1631,2.1635,2.169,2.1695,2.1702,2.1753,2.1718,2.1752,2.1805,2.1767,2.1811,2.1814,2.1833,2.1837,2.1844,2.1834,2.1837,2.1878,2.1878,2.1879,2.1879,0,0,0,0,0,0,0,2.1628,2.1633,2.167,2.1691,2.1698,2.1721,2.1729,2.1725,2.1786,2.1771,2.1778,2.1785,2.1837,2.1844,2.1847,2.1838,2.1878,2.1879,2.1879,2.1879,2.1797,2.1795,0,0,0,0,0,0,2.1617,2.163,2.1667,2.1672,2.1672,2.172,2.1729,2.1734,2.1786,2.1796,2.1783,2.1789,2.1842,2.1846,2.1849,2.1802,2.1879,2.1879,2.1879,2.1799,2.1796,2.1794,0,0,0,0,0,0,2.1616,2.162,2.1665,2.1653,2.166,2.1718,2.1723,2.1734,2.1741,2.1795,2.1806,2.1779,2.1844,2.1849,2.1836,2.1805,2.1879,2.1879,2.1802,2.1798,2.1795,2.1703,0,0,0,0,0,0,2.1614,2.1619,2.1602,2.1652,2.1661,2.165,2.1721,2.1733,2.1742,2.1751,2.1794,2.1804,2.1846,2.1835,2.1836,2.1807,2.188,2.1805,2.18,2.1796,2.1709,2.1697,2.1687,0,0,0,0,0,2.1612,2.1572,2.16,2.1604,2.1641,2.1648,2.1653,2.1704,2.1739,2.1723,2.1758,2.1803,2.1808,2.1833,2.1835,2.1805,2.1807,2.1802,2.1796,2.1715,2.17,2.1687,0,0,0,0,0,0,2.1514,2.1579,2.1612,2.1586,2.1611,2.1664,2.1645,2.1686,2.17,2.1708,2.1769,2.1778,2.1758,2.178,2.1807,2.1765,2.1815,2.1809,2.1752,2.1738,2.1726,2.1722,2.188,0,0,0,0,0,2.149,2.1492,2.1548,2.152,2.1531,2.1586,2.1591,2.1628,2.1656,2.1666,2.1701,2.1725,2.1733,2.1736,2.1746,2.1713,2.1725,2.1694,2.1682,2.1673,2.1668,2.1655,2.1643,2.1776,2.1776,2.1776,0,0,2.144,2.1475,2.1472,2.1502,2.1525,2.1526,2.1594,2.159,2.1591,2.1666,2.1657,2.1682,2.1714,2.1692,2.1684,2.171,2.1634,2.1666,2.1658,2.1658,2.1648,2.1636,2.1624,2.1772,2.1773,2.1774,0,0,2.1349,2.1375,2.1356,2.138,2.1416,2.1453,2.1448,2.1496,2.1516,2.1509,2.1565,2.1567,2.1578,2.1599,2.1611,2.1532,2.1574,2.1533,2.1473,2.146,2.145,2.1441,2.1414,2.1404,2.1528,2.1527,2.1527,0,2.1281,2.1285,2.1341,2.1336,2.1348,2.1417,2.14,2.1419,2.1455,2.1462,2.1491,2.1509,2.1535,2.152,2.1501,2.1507,2.1505,2.1528,2.1447,2.1438,2.1431,2.1406,2.1396,2.1522,2.1523,2.1523,2.1524,0,2.1201,2.1203,2.1183,2.122,2.1229,2.1217,2.1272,2.1275,2.1312,2.1347,2.1339,2.1373,2.1392,2.1392,2.1426,2.1382,2.1398,2.1435,2.1487,2.1412,2.139,2.1381,2.1515,2.1517,2.1518,2.152,0,0,2.1049,2.1119,2.1111,2.113,2.1176,2.1178,2.117,2.1191,2.1194,2.1217,2.1212,2.1222,2.1259,2.1272,2.131,2.1298,2.1236,2.1338,2.134,2.132,2.1193,2.1165,2.1153,2.1265,2.1263,2.1262,2.1191,0,2.0968,2.0959,2.1011,2.0989,2.0992,2.106,2.1053,2.1081,2.1113,2.112,2.1155,2.1162,2.1208,2.1218,2.1209,2.1245,2.1212,2.1251,2.1262,2.1261,2.1253,2.1141,2.1111,2.1043,2.1182,2.1181,2.118,0,2.0872,2.0893,2.0871,2.0922,2.0925,2.0918,2.0943,2.0949,2.0982,2.1007,2.1024,2.1069,2.1065,2.1113,2.111,2.1135,2.1143,2.1161,2.116,2.1164,2.1217,2.1143,2.1022,2.1012,2.1166,2.1168,2.1168,0,2.0766,2.0788,2.078,2.0793,2.0851,2.0845,2.0869,2.0905,2.0915,2.0936,2.0944,2.0963,2.0974,2.0989,2.1038,2.1069,2.103,2.1081,2.1051,2.1049,2.104,2.104,2.0919,2.1042,2.1042,2.1042,2.1042,0,2.0671,2.0655,2.0733,2.0727,2.0713,2.0773,2.0757,2.0787,2.0819,2.0821,2.0879,2.088,2.0944,2.0952,2.099,2.0983,2.0987,2.1007,2.1018,2.1003,2.1,2.1009,2.1015,2.1039,2.104,2.1041,2.1041,0,2.055,2.0601,2.0596,2.0653,2.0667,2.0653,2.0702,2.0699,2.0736,2.0738,2.0741,2.0799,2.0811,2.0862,2.0886,2.0912,2.0892,2.0912,2.0881,2.0889,2.0856,2.0859,2.0737,2.0725,2.0854,2.0852,2.0851,0,2.0486,2.0477,2.0533,2.0539,2.0561,2.057,2.0582,2.0641,2.0651,2.069,2.0683,2.0701,2.0718,2.0735,2.0778,2.0797,2.0819,2.0775,2.0822,2.0808,2.0821,2.0821,2.0822,2.0765,2.0763,2.0762,2.0761,0,2.0369,2.0396,2.0411,2.0436,2.0449,2.0471,2.0496,2.0497,2.0564,2.0572,2.0587,2.06,2.0626,2.0643,2.0671,2.0695,2.0739,2.0746,2.074,2.0725,2.0709,2.0719,2.0856,2.0748,2.075,2.075,2.0751,2.0752,2.0276,2.0272,2.0312,2.0328,2.0354,2.0377,2.0378,2.0417,2.043,2.0457,2.0491,2.0502,2.0538,2.058,2.0601,2.061,2.0635,2.0626,2.0624,2.0621,2.0614,2.0706,2.0615,2.0615,2.0616,2.0616,2.0617,0,2.0164,2.0194,2.0208,2.0243,2.0256,2.0298,2.0329,2.0337,2.0346,2.0376,2.0393,2.0411,2.0429,2.0475,2.0497,2.0496,2.0517,2.05,2.0501,2.0507,2.059,2.0594,2.0483,2.0483,2.0483,2.0483,2.0483,2.0483,2.0107,2.0103,2.0135,2.0145,2.0175,2.0187,2.0202,2.0224,2.0249,2.0267,2.0283,2.0313,2.0351,2.0377,2.0395,2.0408,2.0414,2.0391,2.0411,2.0488,2.0501,2.0513,2.0517,2.0391,2.0391,2.0327,2.0326,2.0326]}]]